Location: Munkebjergskolens Observatorium
(55.3864°N, 10.3987°E)
Time: 04:58:47
(UTC+02:00)

CAS-6 - Pass Details

Date: 06 April 2023
Orbit: 610 x 632 km, 97.9° (Epoch: 31 May)

Event Time Altitude Azimuth Distance (km) Brightness Sun altitude
Exits shadow 23:29:40 72° 229° (SW) 664 ? -23.9°
Maximum altitude 23:29:52 74° 255° (WSW) 658 ? -23.9°
Drops below altitude 10° 23:34:17 10° 342° (NNW) 2,021 ? -24.2°
Sets 23:36:30 0° 344° (NNW) 2,936 ? -24.3°
